weather.gov     
National Weather Service

Regional Weather Roundup
NWS Homepage
This page is being discontinued on March 12, 2014.
The same data is available at this site. Please update your bookmarks.
Thank you, and we apologize for the inconvenience.
Please send an email to SR-SRH.Webmaster@noaa.gov with any concerns.


Current Version
Previous Version:    01  02  03  04  05  06  07  08  09  10  11  12  13  14  15  16  17  18  19  20  21  22  23  24  25  26  27  28  29  30  
   31  32  33  34  35  36  37  38  39  40  41  42  43  44  45  46  47  48  49  50  51  52  53  54  55  56  57  
[Printable]
212
ASUS45 KTFX 230819
RWRMT
MONTANA HOURLY WEATHER ROUNDUP
NATIONAL WEATHER SERVICE GREAT FALLS MT
219 AM MDT TUE SEP 23 2014

NOTE: "FAIR" INDICATES FEW OR NO CLOUDS BELOW 12000 FEET WITH NO
SIGNIFICANT WEATHER AND/OR OBSTRUCTIONS TO VISIBILITY.

* THESE STATIONS ARE NOT UNDER NWS QUALITY CONTROL. THEY DO NOT
   REPORT WEATHER SUCH AS PRECIPITATION OR FOG.

MTZ001>007-043-230900-
WEST OF THE DIVIDE
CITY           SKY/WX    TMP DP  RH WIND       PRES   REMARKS
KALISPELL      PTCLDY    52  46  80 CALM      29.96R
MISSOULA       PTCLDY    55  43  64 SE7       30.02R
BUTTE          CLEAR     43  41  93 CALM      30.14R
MULLAN PASS    LGT RAIN  57  43  60 SW7       30.14R
* ESSEX        N/A       53  45  74 E2G9       N/A
* LINCOLN      N/A       44  36  74 W1         N/A
* POLSON       N/A       62  42  48 S1         N/A
* RONAN APT    PTCLDY    57  46  67 N/A        N/A
* SEELEY LAKE  N/A       44  37  76 E2         N/A
* THOMP F APT  MOCLDY    47  46  96 NE3        N/A
$$

MTZ008-052>055-230900-
SOUTHWEST MONTANA
CITY           SKY/WX    TMP DP  RH WIND       PRES   REMARKS
BOZEMAN        PTCLDY    48  45  89 S7        30.07R
DILLON         PTCLDY    54  46  74 S9        30.12R
W YELLOWSTONE  CLOUDY    46  46 100 CALM      30.23R
* THREE FORKS  CLEAR     52  34  50 N/A        N/A
* BOULDER HILL N/A       55  43  64 S6         N/A
* MONIDA PASS  N/A       45  45 100 SE9        N/A
* RAYNOLDS PAS N/A       48  29  48 SE5        N/A
* WHITEHALL    N/A       50  46  86 N3         N/A
* WISE RIVER   N/A       45  41  86 SW3        N/A
$$

MTZ009>010-012-014-046-048-049-054-230900-
EAST SLOPES AND CENTRAL MONTANA
CITY           SKY/WX    TMP DP  RH WIND       PRES   REMARKS
CUT BANK       CLEAR     55  43  64 W10       29.93S
GREAT FALLS    PTCLDY    63  48  58 SW12      29.94R
HELENA         CLEAR     57  48  72 SW6       30.02R
MALMSTROM AFB  MOCLDY    61  48  62 SW10      29.95R
* CONRAD       CLEAR     55  46  72 N/A        N/A
* EAST GLACIER N/A       58  42  55 NW9        N/A
* MONARCH      N/A       54  43  67 S1G7       N/A
* PENDROY      N/A       64  44  48 NW13       N/A
* ROGERS PASS  N/A       58  35  42 NW1        N/A
* SAINT MARY   N/A       50  43  77 S4         N/A
* SWEET GRASS  N/A       65  43  45 W13        N/A
* WHITE SULPH  N/A       50  45  83 N1         N/A
$$

MTZ011-013-016-021-035-040-045-047-050-051-230900-
NORTH CENTRAL MONTANA
CITY           SKY/WX    TMP DP  RH WIND       PRES   REMARKS
HAVRE          CLEAR     50  46  86 W5        29.85R
LEWISTOWN      CLEAR     52  46  80 SE7       29.96S
* CHINOOK      CLEAR     48  48 100 W3        29.85R VSB 1/2
* FORT BENTON  PTCLDY    63  48  58 SW6       29.90R
* CHESTER      N/A       52  41  66 NE2        N/A
* DENTON       N/A       58  48  70 S8         N/A
* GEYSER       N/A       59  46  62 W11        N/A
* JUDITH GAP   N/A       53  50  90 SE3        N/A
* LOMA         N/A       62  47  58 W6         N/A
$$

MTZ017>020-022>027-061-062-230900-
NORTHEAST MONTANA
CITY           SKY/WX    TMP DP  RH WIND       PRES   REMARKS
GLASGOW        CLEAR     54  46  74 E8        29.83S
GLENDIVE       CLEAR     54  48  80 N6        29.86S
JORDAN         CLEAR     48  46  93 W7        29.85S
SIDNEY         CLEAR     48  45  89 CALM      29.86S
WOLF POINT     CLEAR     54  46  74 E5        29.84S
* BEAVER HILL  N/A       58  50  75 SE13       N/A
* CIRCLE       N/A       55  49  80 N/A        N/A
* LINDSAY DVD  N/A       55  49  80 N/A        N/A
* NAVAJO       N/A       54  47  77 SW4        N/A
$$

MTZ028>042-056>058-230900-
SOUTHCENTRAL AND SOUTHEAST MONTANA
CITY           SKY/WX    TMP DP  RH WIND       PRES   REMARKS
BAKER          MOCLDY    54  48  80 SE5       29.88S
BILLINGS       PTCLDY    63  48  58 SW16      29.94S
LIVINGSTON     CLEAR     64  46  52 W24G29    30.04R
MILES CITY     CLEAR     55  46  72 S3        29.86S
* LAUREL APT   PTCLDY    61  45  56 N/A        N/A
* ROUNDUP APT  PTCLDY    59  48  67 SW6        N/A
* ALZADA       N/A       63  53  70 SE10       N/A
* HYSHAM       N/A       63  47  56 W6         N/A
* LAME DEER    N/A       63  48  58 W10        N/A
* REED POINT   N/A       55  47  75 N/A        N/A
* ROSCOE HILL  N/A       62  36  38 S10G17     N/A
$$

REGIONAL REPORTS...DAKOTAS
CITY           SKY/WX    TMP DP  RH WIND       PRES   REMARKS
WILLISTON      CLEAR     52  46  80 N5        29.85F
DICKINSON      PTCLDY    54  48  80 SE9       29.87F
BEACH          N/A       52  52 100 S5        29.87S
CROSBY         CLEAR     54  50  86 SW5       29.87S
TIOGA          CLEAR     48  48 100 CALM      29.91F
WATFORD CITY   CLEAR     48  46  93 CALM      29.84F
BISMARCK       CLEAR     55  52  90 SE8       29.92F
GRAND FORKS    CLEAR     54  48  80 S7        30.01F
FARGO          CLEAR     59  48  67 SE9       30.04F
BUFFALO SD     CLOUDY    63  52  68 SE3       29.83F
RAPID CITY     MOCLDY    57  54  90 SE8       29.92F
$$

REGIONAL REPORTS...WYOMING/IDAHO/WASHINGTON
CITY           SKY/WX    TMP DP  RH WIND       PRES   REMARKS
GILLETTE       MOCLDY    55  48  77 S6        29.97R
SHERIDAN       PTCLDY    54  45  72 SW7       29.97R
CODY           CLEAR     63  45  52 W8G17     30.06R
YELLOWSTONE LA PTCLDY    46  45  96 CALM      30.30R
SALMON         PTCLDY    54  48  80 CALM      30.10R
MULLAN PASS    LGT RAIN  57  43  60 SW7       30.14S
SAND POINT     CLOUDY    61  54  78 S6        29.95R
SPOKANE        CLOUDY    66  52  61 S9        29.97R
$$

REGIONAL REPORTS...ALBERTA
CITY           SKY/WX    TMP DP  RH WIND       PRES   REMARKS
CALGARY        PTCLDY    57  45  64 N2        29.86R
LETHBRIDGE     CLEAR     61  43  52 SW15      29.86R
MEDICINE HAT   CLEAR     54  46  74 SW9       29.80S
EDMONTON       CLOUDY    55  48  77 W6        29.80R
WATERTON GATE  N/A       55  43  64 SW3        N/A
CARDSTON       N/A       59  45  60 SW9        N/A
MILK RIVER     N/A       54  45  72 NW9        N/A
$$

REGIONAL REPORTS...SASKATCHEWAN
CITY           SKY/WX    TMP DP  RH WIND       PRES   REMARKS
SWIFT CURRENT  CLEAR     57  48  72 SW12      29.80F
REGINA         N/A       52  48  86 SE10      29.84S
VAL MARIE      N/A       43  43 100 NE5        N/A
ASSINIBOIA     N/A       57  45  64 S6         N/A
CORONACH       N/A       45  43  93 W1         N/A

$$





U.S. Dept. of Commerce
NOAA National Weather Service
1325 East West Highway
Silver Spring, MD 20910
E-mail: w-nws.webmaster@noaa.gov
Page last modified: May 16, 2007
NATIONAL WEATHER SERVICE: for Safety, for Work, for Fun - FOR LIFE